Weather History for Starkville, MS

Change the Weather History Date:

Monday, December 31, 2012

  Actual Average Record
Temperature  
Mean Temperature 40 °F -  
Max Temperature 50 °F 52 °F 66 °F (2011)
Min Temperature 30 °F 34 °F 30 °F (2012)
Degree Days  
Heating Degree Days 25    
Moisture  
Dew Point 35 °F    
Average Humidity 81    
Maximum Humidity 100    
Minimum Humidity 62    
Precipitation  
Precipitation 0.00 in - - ()
Sea Level Pressure  
Sea Level Pressure 30.22 in    
Wind  
Wind Speed 3 mph (SSE)    
Max Wind Speed 12 mph    
Max Gust Speed 17 mph    
Visibility 10 miles    
Events      
Averages and records for this station are not official NWS values.
T = Trace of Precipitation, MM = Missing Value Source: NWS Daily Summary

Daily Weather History Graph

Daily Weather History Graph

Search for Another Location

Airport:

Trip Planner

Search our weather history database for the weather conditions in past years. The results will help you decide how hot, cold, wet, or windy it might be!

Date:

Astronomy

Dec. 31, 2012 Rise Set
Actual Time 6:59 AM CST 4:58 PM CST
Civil Twilight 6:31 AM CST 5:25 PM CST
Nautical Twilight 6:00 AM CST 5:56 PM CST
Astronomical Twilight 5:30 AM CST 6:26 PM CST
Moon 8:17 PM CST (12/31) 8:50 AM CST (12/31)
Length of Visible Light 10h 53m
Length of Day
9h 58m
Waning Gibbous, 90% of the Moon is Illuminated
Dec 31
Waning Gibbous
Jan 4
Last Quarter
Jan 11
New
Jan 18
First Quarter
Jan 26
Full

Hourly Weather History & Observations

Time (CST) Temp. Windchill Dew Point Humidity Pressure Visibility Wind Dir Wind Speed Gust Speed Precip Events Conditions
12:15 AM 33.8 °F - 32.0 °F 93% 30.34 in 10.0 mi Calm Calm - N/A   Clear
12:35 AM 33.8 °F - 30.2 °F 87% 30.34 in 10.0 mi Calm Calm - N/A   Clear
12:55 AM 33.8 °F - 30.2 °F 87% 30.34 in 10.0 mi Calm Calm - N/A   Clear
1:15 AM 32.0 °F - 32.0 °F 100% 30.35 in 10.0 mi Calm Calm - N/A   Clear
1:55 AM 32.0 °F - 32.0 °F 100% 30.35 in 10.0 mi Calm Calm - N/A   Clear
2:15 AM 32.0 °F - 32.0 °F 100% 30.35 in 10.0 mi Calm Calm - N/A   Clear
2:35 AM 33.8 °F - 32.0 °F 93% 30.34 in 10.0 mi Calm Calm - N/A   Clear
2:55 AM 32.0 °F - 32.0 °F 100% 30.33 in 10.0 mi Calm Calm - N/A   Clear
3:15 AM 32.0 °F - 30.2 °F 93% 30.33 in 10.0 mi Calm Calm - N/A   Clear
3:35 AM 32.0 °F - 30.2 °F 93% 30.35 in 10.0 mi Calm Calm - N/A   Clear
3:55 AM 32.0 °F - 30.2 °F 93% 30.34 in 10.0 mi Calm Calm - N/A   Clear
4:15 AM 32.0 °F - 30.2 °F 93% 30.34 in 10.0 mi Calm Calm - N/A   Clear
4:35 AM 32.0 °F - 30.2 °F 93% 30.32 in 10.0 mi Calm Calm - N/A   Clear
4:55 AM 32.0 °F 28.7 °F 30.2 °F 93% 30.31 in 10.0 mi SSE 3.5 mph - N/A   Clear
5:15 AM 32.0 °F - 30.2 °F 93% 30.32 in 10.0 mi Calm Calm - N/A   Clear
5:55 AM 30.2 °F - 28.4 °F 93% 30.33 in 10.0 mi Calm Calm - N/A   Overcast
6:15 AM 30.2 °F 26.7 °F 30.2 °F 100% 30.32 in 10.0 mi SSE 3.5 mph - N/A   Scattered Clouds
6:55 AM 32.0 °F - 30.2 °F 93% 30.32 in 10.0 mi Calm Calm - N/A   Overcast
7:15 AM 32.0 °F - 30.2 °F 93% 30.32 in 10.0 mi Calm Calm - N/A   Mostly Cloudy
7:35 AM 32.0 °F - 30.2 °F 93% 30.34 in 10.0 mi Calm Calm - N/A   Scattered Clouds
7:55 AM 33.8 °F - 30.2 °F 87% 30.35 in 10.0 mi Calm Calm - N/A   Mostly Cloudy
8:15 AM 35.6 °F 32.8 °F 32.0 °F 87% 30.33 in 10.0 mi SSE 3.5 mph - N/A   Overcast
8:35 AM 37.4 °F 33.8 °F 32.0 °F 81% 30.33 in 10.0 mi SSE 4.6 mph - N/A   Overcast
8:55 AM 37.4 °F 32.8 °F 32.0 °F 81% 30.33 in 10.0 mi SSE 5.8 mph - N/A   Overcast
9:15 AM 37.4 °F 33.8 °F 32.0 °F 81% 30.33 in 10.0 mi SE 4.6 mph - N/A   Overcast
9:35 AM 37.4 °F 32.8 °F 32.0 °F 81% 30.33 in 10.0 mi SSE 5.8 mph - N/A   Overcast
9:55 AM 39.2 °F 35.9 °F 32.0 °F 75% 30.32 in 10.0 mi SSE 4.6 mph - N/A   Overcast
10:15 AM 41.0 °F 37.1 °F 32.0 °F 70% 30.32 in 10.0 mi SSE 5.8 mph - N/A   Overcast
10:35 AM 41.0 °F 38.0 °F 32.0 °F 70% 30.32 in 10.0 mi SSE 4.6 mph - N/A   Overcast
10:55 AM 41.0 °F 37.1 °F 32.0 °F 70% 30.30 in 10.0 mi SSE 5.8 mph - N/A   Overcast
11:15 AM 41.0 °F 36.4 °F 32.0 °F 70% 30.29 in 10.0 mi SSE 6.9 mph - N/A   Overcast
11:35 AM 42.8 °F 39.3 °F 32.0 °F 66% 30.27 in 10.0 mi SE 5.8 mph - N/A   Overcast
11:55 AM 42.8 °F 39.3 °F 32.0 °F 66% 30.24 in 10.0 mi SE 5.8 mph - N/A   Overcast
12:15 PM 42.8 °F 39.3 °F 33.8 °F 70% 30.23 in 10.0 mi SSE 5.8 mph - N/A   Overcast
12:55 PM 44.6 °F 41.4 °F 33.8 °F 66% 30.21 in 10.0 mi SSE 5.8 mph - N/A   Overcast
1:15 PM 44.6 °F 42.2 °F 33.8 °F 66% 30.20 in 10.0 mi SE 4.6 mph - N/A   Overcast
1:35 PM 44.6 °F 41.4 °F 35.6 °F 71% 30.18 in 10.0 mi SSE 5.8 mph - N/A   Overcast
1:55 PM 46.4 °F 45.2 °F 35.6 °F 66% 30.18 in 10.0 mi ESE 3.5 mph - N/A   Overcast
2:15 PM 46.4 °F 43.5 °F 33.8 °F 62% 30.19 in 10.0 mi SE 5.8 mph - N/A   Overcast
2:35 PM 46.4 °F 43.5 °F 35.6 °F 66% 30.18 in 10.0 mi SE 5.8 mph - N/A   Overcast
2:55 PM 46.4 °F 44.3 °F 35.6 °F 66% 30.18 in 10.0 mi SE 4.6 mph - N/A   Overcast
3:15 PM 46.4 °F 45.2 °F 35.6 °F 66% 30.17 in 10.0 mi ESE 3.5 mph - N/A   Overcast
3:35 PM 46.4 °F 42.9 °F 35.6 °F 66% 30.16 in 10.0 mi SE 6.9 mph - N/A   Overcast
3:55 PM 46.4 °F 42.9 °F 35.6 °F 66% 30.15 in 10.0 mi SE 6.9 mph - N/A   Overcast
4:15 PM 46.4 °F 41.1 °F 35.6 °F 66% 30.14 in 10.0 mi SE 11.5 mph 16.1 mph N/A   Overcast
4:35 PM 46.4 °F 41.9 °F 37.4 °F 71% 30.12 in 10.0 mi SSE 9.2 mph 17.3 mph N/A   Overcast
4:55 PM 44.6 °F 40.2 °F 37.4 °F 76% 30.13 in 10.0 mi SSE 8.1 mph - N/A   Overcast
5:15 PM 44.6 °F 42.2 °F 37.4 °F 76% 30.13 in 10.0 mi SSE 4.6 mph - N/A   Mostly Cloudy
5:35 PM 44.6 °F 41.4 °F 37.4 °F 76% 30.13 in 10.0 mi SSE 5.8 mph - N/A   Scattered Clouds
5:55 PM 44.6 °F 41.4 °F 37.4 °F 76% 30.13 in 10.0 mi SSE 5.8 mph - N/A   Mostly Cloudy
6:15 PM 44.6 °F 41.4 °F 37.4 °F 76% 30.13 in 10.0 mi SSE 5.8 mph - N/A   Overcast
6:35 PM 46.4 °F 42.9 °F 39.2 °F 76% 30.12 in 10.0 mi SSE 6.9 mph - N/A   Overcast
6:55 PM 46.4 °F 43.5 °F 39.2 °F 76% 30.12 in 10.0 mi South 5.8 mph - N/A   Overcast
7:15 PM 46.4 °F 43.5 °F 41.0 °F 81% 30.12 in 10.0 mi SSE 5.8 mph - N/A   Overcast
7:35 PM 46.4 °F 43.5 °F 41.0 °F 81% 30.11 in 10.0 mi SSE 5.8 mph - N/A   Overcast
7:55 PM 46.4 °F 42.4 °F 41.0 °F 81% 30.09 in 10.0 mi SE 8.1 mph - N/A   Overcast
8:15 PM 46.4 °F 41.9 °F 41.0 °F 81% 30.07 in 10.0 mi SSE 9.2 mph - N/A   Overcast
8:35 PM 46.4 °F 41.5 °F 41.0 °F 81% 30.04 in 10.0 mi SSE 10.4 mph - N/A   Mostly Cloudy
8:55 PM 48.2 °F - 42.8 °F 82% 30.06 in 10.0 mi SSE 6.9 mph - N/A   Overcast
9:15 PM 48.2 °F - 42.8 °F 82% 30.07 in 10.0 mi South 4.6 mph - N/A   Overcast
9:35 PM 48.2 °F - 42.8 °F 82% 30.07 in 10.0 mi SSE 6.9 mph - N/A   Overcast
9:55 PM 48.2 °F - 44.6 °F 87% 30.05 in 10.0 mi SSE 6.9 mph - N/A   Overcast
10:15 PM 48.2 °F - 44.6 °F 87% 30.05 in 10.0 mi SSE 4.6 mph - N/A   Overcast
10:35 PM 50.0 °F - 44.6 °F 82% 30.04 in 10.0 mi SSE 8.1 mph - N/A   Overcast
10:55 PM 50.0 °F - 44.6 °F 82% 30.04 in 10.0 mi SSE 8.1 mph - N/A   Overcast
11:15 PM 50.0 °F - 46.4 °F 87% 30.03 in 10.0 mi SSE 6.9 mph - N/A   Overcast
11:35 PM 50.0 °F - 46.4 °F 87% 30.02 in 10.0 mi SSE 8.1 mph - N/A   Overcast
11:55 PM 50.0 °F - 46.4 °F 87% 30.01 in 10.0 mi SSE 9.2 mph - N/A   Mostly Cloudy